owner,sensor,date,latitude,longitude,relative_humidity,qcFlag 
DISL,ioos:station:DISL:PPTA:1,2017-09-01T00:00:00Z,30.2791,-87.5561,70.28,1111122 
DISL,ioos:station:DISL:PPTA:1,2017-09-01T00:30:00Z,30.2791,-87.5561,71.92,1111122 
DISL,ioos:station:DISL:PPTA:1,2017-09-01T01:00:00Z,30.2791,-87.5561,70.89,1111122 
DISL,ioos:station:DISL:PPTA:1,2017-09-01T01:30:00Z,30.2791,-87.5561,70.25,1111122 
DISL,ioos:station:DISL:PPTA:1,2017-09-01T02:00:00Z,30.2791,-87.5561,72.43,1111122 
DISL,ioos:station:DISL:PPTA:1,2017-09-01T02:30:00Z,30.2791,-87.5561,68.92,1111122 
DISL,ioos:station:DISL:PPTA:1,2017-09-01T03:00:00Z,30.2791,-87.5561,68.85,1111122 
DISL,ioos:station:DISL:PPTA:1,2017-09-01T03:30:00Z,30.2791,-87.5561,67.15,1111122 
DISL,ioos:station:DISL:PPTA:1,2017-09-01T04:00:00Z,30.2791,-87.5561,68.99,1111122 
DISL,ioos:station:DISL:PPTA:1,2017-09-01T04:30:00Z,30.2791,-87.5561,69.0,1111122 
DISL,ioos:station:DISL:PPTA:1,2017-09-01T05:00:00Z,30.2791,-87.5561,68.76,1111122 
DISL,ioos:station:DISL:PPTA:1,2017-09-01T05:30:00Z,30.2791,-87.5561,69.76,1111122 
DISL,ioos:station:DISL:PPTA:1,2017-09-01T06:00:00Z,30.2791,-87.5561,69.28,1111122 
DISL,ioos:station:DISL:PPTA:1,2017-09-01T06:30:00Z,30.2791,-87.5561,71.5,1111122 
DISL,ioos:station:DISL:PPTA:1,2017-09-01T07:00:00Z,30.2791,-87.5561,73.3,1111122 
DISL,ioos:station:DISL:PPTA:1,2017-09-01T07:30:00Z,30.2791,-87.5561,72.42,1111122 
DISL,ioos:station:DISL:PPTA:1,2017-09-01T08:00:00Z,30.2791,-87.5561,73.37,1111122 
DISL,ioos:station:DISL:PPTA:1,2017-09-01T08:30:00Z,30.2791,-87.5561,76.41,1111122 
DISL,ioos:station:DISL:PPTA:1,2017-09-01T09:00:00Z,30.2791,-87.5561,77.22,1111122 
DISL,ioos:station:DISL:PPTA:1,2017-09-01T09:30:00Z,30.2791,-87.5561,77.02,1111122 
DISL,ioos:station:DISL:PPTA:1,2017-09-01T10:00:00Z,30.2791,-87.5561,78.93,1111122 
DISL,ioos:station:DISL:PPTA:1,2017-09-01T10:30:00Z,30.2791,-87.5561,80.5,1111122 
DISL,ioos:station:DISL:PPTA:1,2017-09-01T11:00:00Z,30.2791,-87.5561,81.5,1111122 
DISL,ioos:station:DISL:PPTA:1,2017-09-01T11:30:00Z,30.2791,-87.5561,81.9,1111122 
DISL,ioos:station:DISL:PPTA:1,2017-09-01T12:00:00Z,30.2791,-87.5561,83.1,1111122 
DISL,ioos:station:DISL:PPTA:1,2017-09-01T12:30:00Z,30.2791,-87.5561,80.9,1111122 
DISL,ioos:station:DISL:PPTA:1,2017-09-01T13:00:00Z,30.2791,-87.5561,81.4,1111122 
DISL,ioos:station:DISL:PPTA:1,2017-09-01T13:30:00Z,30.2791,-87.5561,77.1,1111122 
DISL,ioos:station:DISL:PPTA:1,2017-09-01T14:00:00Z,30.2791,-87.5561,72.0,1111122 
DISL,ioos:station:DISL:PPTA:1,2017-09-01T14:30:00Z,30.2791,-87.5561,69.97,1111122 
DISL,ioos:station:DISL:PPTA:1,2017-09-01T15:00:00Z,30.2791,-87.5561,70.81,1111122 
DISL,ioos:station:DISL:PPTA:1,2017-09-01T15:30:00Z,30.2791,-87.5561,70.38,1111122 
DISL,ioos:station:DISL:PPTA:1,2017-09-01T16:00:00Z,30.2791,-87.5561,66.38,1111122 
DISL,ioos:station:DISL:PPTA:1,2017-09-01T16:30:00Z,30.2791,-87.5561,71.07,1111122 
DISL,ioos:station:DISL:PPTA:1,2017-09-01T17:00:00Z,30.2791,-87.5561,70.8,1111122 
DISL,ioos:station:DISL:PPTA:1,2017-09-01T17:30:00Z,30.2791,-87.5561,71.07,1111122 
DISL,ioos:station:DISL:PPTA:1,2017-09-01T18:00:00Z,30.2791,-87.5561,67.47,1111122 
DISL,ioos:station:DISL:PPTA:1,2017-09-01T18:30:00Z,30.2791,-87.5561,65.51,1111122 
DISL,ioos:station:DISL:PPTA:1,2017-09-01T19:00:00Z,30.2791,-87.5561,66.02,1111122 
DISL,ioos:station:DISL:PPTA:1,2017-09-01T19:30:00Z,30.2791,-87.5561,68.37,1111122 
DISL,ioos:station:DISL:PPTA:1,2017-09-01T20:00:00Z,30.2791,-87.5561,66.98,1111122 
DISL,ioos:station:DISL:PPTA:1,2017-09-01T20:30:00Z,30.2791,-87.5561,69.51,1111122 
DISL,ioos:station:DISL:PPTA:1,2017-09-01T21:00:00Z,30.2791,-87.5561,67.98,1111122 
DISL,ioos:station:DISL:PPTA:1,2017-09-01T21:30:00Z,30.2791,-87.5561,68.56,1111122 
DISL,ioos:station:DISL:PPTA:1,2017-09-01T22:00:00Z,30.2791,-87.5561,68.7,1111122 
DISL,ioos:station:DISL:PPTA:1,2017-09-01T22:30:00Z,30.2791,-87.5561,70.66,1111122 
DISL,ioos:station:DISL:PPTA:1,2017-09-01T23:00:00Z,30.2791,-87.5561,72.03,1111122 
DISL,ioos:station:DISL:PPTA:1,2017-09-01T23:30:00Z,30.2791,-87.5561,70.22,1111122 
DISL,ioos:station:DISL:PPTA:1,2017-09-02T00:00:00Z,30.2791,-87.5561,72.2,1111122 
DISL,ioos:station:DISL:PPTA:1,2017-09-02T00:30:00Z,30.2791,-87.5561,71.88,1111122 
DISL,ioos:station:DISL:PPTA:1,2017-09-02T01:00:00Z,30.2791,-87.5561,71.61,1111122 
DISL,ioos:station:DISL:PPTA:1,2017-09-02T01:30:00Z,30.2791,-87.5561,71.27,1111122 
DISL,ioos:station:DISL:PPTA:1,2017-09-02T02:00:00Z,30.2791,-87.5561,72.22,1111122 
DISL,ioos:station:DISL:PPTA:1,2017-09-02T02:30:00Z,30.2791,-87.5561,74.54,1111122 
DISL,ioos:station:DISL:PPTA:1,2017-09-02T03:00:00Z,30.2791,-87.5561,75.68,1111122 
DISL,ioos:station:DISL:PPTA:1,2017-09-02T03:30:00Z,30.2791,-87.5561,74.59,1111122 
DISL,ioos:station:DISL:PPTA:1,2017-09-02T04:00:00Z,30.2791,-87.5561,76.6,1111122 
DISL,ioos:station:DISL:PPTA:1,2017-09-02T04:30:00Z,30.2791,-87.5561,85.1,1111122 
DISL,ioos:station:DISL:PPTA:1,2017-09-02T05:00:00Z,30.2791,-87.5561,76.78,1111122 
DISL,ioos:station:DISL:PPTA:1,2017-09-02T05:30:00Z,30.2791,-87.5561,84.7,1111122 
DISL,ioos:station:DISL:PPTA:1,2017-09-02T06:00:00Z,30.2791,-87.5561,85.4,1111122 
DISL,ioos:station:DISL:PPTA:1,2017-09-02T06:30:00Z,30.2791,-87.5561,85.7,1111122 
DISL,ioos:station:DISL:PPTA:1,2017-09-02T07:00:00Z,30.2791,-87.5561,82.7,1111122 
DISL,ioos:station:DISL:PPTA:1,2017-09-02T07:30:00Z,30.2791,-87.5561,82.5,1111122 
DISL,ioos:station:DISL:PPTA:1,2017-09-02T08:00:00Z,30.2791,-87.5561,85.5,1111122 
DISL,ioos:station:DISL:PPTA:1,2017-09-02T08:30:00Z,30.2791,-87.5561,82.1,1111122 
DISL,ioos:station:DISL:PPTA:1,2017-09-02T09:00:00Z,30.2791,-87.5561,83.4,1111122 
DISL,ioos:station:DISL:PPTA:1,2017-09-02T09:30:00Z,30.2791,-87.5561,83.7,1111122 
DISL,ioos:station:DISL:PPTA:1,2017-09-02T10:00:00Z,30.2791,-87.5561,83.7,1111122 
DISL,ioos:station:DISL:PPTA:1,2017-09-02T10:30:00Z,30.2791,-87.5561,85.4,1111122 
DISL,ioos:station:DISL:PPTA:1,2017-09-02T11:00:00Z,30.2791,-87.5561,85.8,1111122 
DISL,ioos:station:DISL:PPTA:1,2017-09-02T11:30:00Z,30.2791,-87.5561,86.1,1111122 
DISL,ioos:station:DISL:PPTA:1,2017-09-02T12:00:00Z,30.2791,-87.5561,89.4,1111122 
DISL,ioos:station:DISL:PPTA:1,2017-09-02T12:30:00Z,30.2791,-87.5561,87.4,1111122 
DISL,ioos:station:DISL:PPTA:1,2017-09-02T13:00:00Z,30.2791,-87.5561,81.9,1111122 
DISL,ioos:station:DISL:PPTA:1,2017-09-02T13:30:00Z,30.2791,-87.5561,79.71,1111122 
DISL,ioos:station:DISL:PPTA:1,2017-09-02T14:00:00Z,30.2791,-87.5561,77.44,1111122 
DISL,ioos:station:DISL:PPTA:1,2017-09-02T14:30:00Z,30.2791,-87.5561,73.72,1111122 
DISL,ioos:station:DISL:PPTA:1,2017-09-02T15:00:00Z,30.2791,-87.5561,74.41,1111122 
DISL,ioos:station:DISL:PPTA:1,2017-09-02T15:30:00Z,30.2791,-87.5561,73.41,1111122 
DISL,ioos:station:DISL:PPTA:1,2017-09-02T16:00:00Z,30.2791,-87.5561,71.25,1111122 
DISL,ioos:station:DISL:PPTA:1,2017-09-02T16:30:00Z,30.2791,-87.5561,68.87,1111122 
DISL,ioos:station:DISL:PPTA:1,2017-09-02T17:00:00Z,30.2791,-87.5561,69.91,1111122 
DISL,ioos:station:DISL:PPTA:1,2017-09-02T17:30:00Z,30.2791,-87.5561,69.94,1111122 
DISL,ioos:station:DISL:PPTA:1,2017-09-02T18:00:00Z,30.2791,-87.5561,69.05,1111122 
DISL,ioos:station:DISL:PPTA:1,2017-09-02T18:30:00Z,30.2791,-87.5561,69.77,1111122 
DISL,ioos:station:DISL:PPTA:1,2017-09-02T19:00:00Z,30.2791,-87.5561,77.04,1111122 
DISL,ioos:station:DISL:PPTA:1,2017-09-02T19:30:00Z,30.2791,-87.5561,79.18,1111122 
DISL,ioos:station:DISL:PPTA:1,2017-09-02T20:00:00Z,30.2791,-87.5561,78.72,1111122 
DISL,ioos:station:DISL:PPTA:1,2017-09-02T20:30:00Z,30.2791,-87.5561,78.6,1111122 
DISL,ioos:station:DISL:PPTA:1,2017-09-02T21:00:00Z,30.2791,-87.5561,76.62,1111122 
DISL,ioos:station:DISL:PPTA:1,2017-09-02T21:30:00Z,30.2791,-87.5561,76.48,1111122 
DISL,ioos:station:DISL:PPTA:1,2017-09-02T22:00:00Z,30.2791,-87.5561,78.22,1111122 
DISL,ioos:station:DISL:PPTA:1,2017-09-02T22:30:00Z,30.2791,-87.5561,78.66,1111122 
DISL,ioos:station:DISL:PPTA:1,2017-09-02T23:00:00Z,30.2791,-87.5561,80.2,1111122 
DISL,ioos:station:DISL:PPTA:1,2017-09-02T23:30:00Z,30.2791,-87.5561,77.57,1111122 
DISL,ioos:station:DISL:PPTA:1,2017-09-03T00:00:00Z,30.2791,-87.5561,77.33,1111122 
DISL,ioos:station:DISL:PPTA:1,2017-09-03T00:30:00Z,30.2791,-87.5561,77.64,1111122 
DISL,ioos:station:DISL:PPTA:1,2017-09-03T01:00:00Z,30.2791,-87.5561,77.34,1111122 
DISL,ioos:station:DISL:PPTA:1,2017-09-03T01:30:00Z,30.2791,-87.5561,82.8,1111122 
DISL,ioos:station:DISL:PPTA:1,2017-09-03T02:00:00Z,30.2791,-87.5561,84.7,1111122 
DISL,ioos:station:DISL:PPTA:1,2017-09-03T02:30:00Z,30.2791,-87.5561,85.1,1111122 
DISL,ioos:station:DISL:PPTA:1,2017-09-03T03:00:00Z,30.2791,-87.5561,88.2,1111122 
DISL,ioos:station:DISL:PPTA:1,2017-09-03T03:30:00Z,30.2791,-87.5561,88.0,1111122 
DISL,ioos:station:DISL:PPTA:1,2017-09-03T04:00:00Z,30.2791,-87.5561,87.7,1111122 
DISL,ioos:station:DISL:PPTA:1,2017-09-03T04:30:00Z,30.2791,-87.5561,87.2,1111122 
DISL,ioos:station:DISL:PPTA:1,2017-09-03T05:00:00Z,30.2791,-87.5561,83.0,1111122 
DISL,ioos:station:DISL:PPTA:1,2017-09-03T05:30:00Z,30.2791,-87.5561,81.4,1111122 
DISL,ioos:station:DISL:PPTA:1,2017-09-03T06:00:00Z,30.2791,-87.5561,82.8,1111122 
DISL,ioos:station:DISL:PPTA:1,2017-09-03T06:30:00Z,30.2791,-87.5561,83.6,1111122 
DISL,ioos:station:DISL:PPTA:1,2017-09-03T07:00:00Z,30.2791,-87.5561,81.3,1111122 
DISL,ioos:station:DISL:PPTA:1,2017-09-03T07:30:00Z,30.2791,-87.5561,85.8,1111122 
DISL,ioos:station:DISL:PPTA:1,2017-09-03T08:00:00Z,30.2791,-87.5561,87.2,1111122 
DISL,ioos:station:DISL:PPTA:1,2017-09-03T08:30:00Z,30.2791,-87.5561,87.6,1111122 
DISL,ioos:station:DISL:PPTA:1,2017-09-03T09:00:00Z,30.2791,-87.5561,86.0,1111122 
DISL,ioos:station:DISL:PPTA:1,2017-09-03T09:30:00Z,30.2791,-87.5561,85.6,1111122 
DISL,ioos:station:DISL:PPTA:1,2017-09-03T10:00:00Z,30.2791,-87.5561,88.7,1111122 
DISL,ioos:station:DISL:PPTA:1,2017-09-03T10:30:00Z,30.2791,-87.5561,90.2,1111122 
DISL,ioos:station:DISL:PPTA:1,2017-09-03T11:00:00Z,30.2791,-87.5561,90.2,1111122 
DISL,ioos:station:DISL:PPTA:1,2017-09-03T11:30:00Z,30.2791,-87.5561,90.2,1111122 
DISL,ioos:station:DISL:PPTA:1,2017-09-03T12:00:00Z,30.2791,-87.5561,88.9,1111122 
DISL,ioos:station:DISL:PPTA:1,2017-09-03T12:30:00Z,30.2791,-87.5561,85.7,1111122 
DISL,ioos:station:DISL:PPTA:1,2017-09-03T13:00:00Z,30.2791,-87.5561,80.9,1111122 
DISL,ioos:station:DISL:PPTA:1,2017-09-03T13:30:00Z,30.2791,-87.5561,78.06,1111122 
DISL,ioos:station:DISL:PPTA:1,2017-09-03T14:00:00Z,30.2791,-87.5561,75.09,1111122 
DISL,ioos:station:DISL:PPTA:1,2017-09-03T14:30:00Z,30.2791,-87.5561,71.5,1111122 
DISL,ioos:station:DISL:PPTA:1,2017-09-03T15:00:00Z,30.2791,-87.5561,71.98,1111122 
DISL,ioos:station:DISL:PPTA:1,2017-09-03T15:30:00Z,30.2791,-87.5561,66.41,1111122 
DISL,ioos:station:DISL:PPTA:1,2017-09-03T16:00:00Z,30.2791,-87.5561,68.56,1111122 
DISL,ioos:station:DISL:PPTA:1,2017-09-03T16:30:00Z,30.2791,-87.5561,64.43,1111122 
DISL,ioos:station:DISL:PPTA:1,2017-09-03T17:00:00Z,30.2791,-87.5561,69.89,1111122 
DISL,ioos:station:DISL:PPTA:1,2017-09-03T17:30:00Z,30.2791,-87.5561,62.58,1111122 
DISL,ioos:station:DISL:PPTA:1,2017-09-03T18:00:00Z,30.2791,-87.5561,62.65,1111122 
DISL,ioos:station:DISL:PPTA:1,2017-09-03T18:30:00Z,30.2791,-87.5561,63.7,1111122 
DISL,ioos:station:DISL:PPTA:1,2017-09-03T19:00:00Z,30.2791,-87.5561,61.83,1111122 
DISL,ioos:station:DISL:PPTA:1,2017-09-03T19:30:00Z,30.2791,-87.5561,63.6,1111122 
DISL,ioos:station:DISL:PPTA:1,2017-09-03T20:00:00Z,30.2791,-87.5561,61.64,1111122 
DISL,ioos:station:DISL:PPTA:1,2017-09-03T20:30:00Z,30.2791,-87.5561,63.52,1111122 
DISL,ioos:station:DISL:PPTA:1,2017-09-03T21:00:00Z,30.2791,-87.5561,61.21,1111122 
DISL,ioos:station:DISL:PPTA:1,2017-09-03T21:30:00Z,30.2791,-87.5561,60.97,1111122 
DISL,ioos:station:DISL:PPTA:1,2017-09-03T22:00:00Z,30.2791,-87.5561,65.26,1111122 
DISL,ioos:station:DISL:PPTA:1,2017-09-03T22:30:00Z,30.2791,-87.5561,64.38,1111122 
DISL,ioos:station:DISL:PPTA:1,2017-09-03T23:00:00Z,30.2791,-87.5561,64.67,1111122 
DISL,ioos:station:DISL:PPTA:1,2017-09-03T23:30:00Z,30.2791,-87.5561,66.37,1111122 
DISL,ioos:station:DISL:PPTA:1,2017-09-04T00:00:00Z,30.2791,-87.5561,65.21,1111122 
DISL,ioos:station:DISL:PPTA:1,2017-09-04T00:30:00Z,30.2791,-87.5561,66.1,1111122 
DISL,ioos:station:DISL:PPTA:1,2017-09-04T01:00:00Z,30.2791,-87.5561,69.65,1111122 
DISL,ioos:station:DISL:PPTA:1,2017-09-04T01:30:00Z,30.2791,-87.5561,76.18,1111122 
DISL,ioos:station:DISL:PPTA:1,2017-09-04T02:00:00Z,30.2791,-87.5561,80.2,1111122 
DISL,ioos:station:DISL:PPTA:1,2017-09-04T02:30:00Z,30.2791,-87.5561,79.65,1111122 
DISL,ioos:station:DISL:PPTA:1,2017-09-04T03:00:00Z,30.2791,-87.5561,74.54,1111122 
DISL,ioos:station:DISL:PPTA:1,2017-09-04T03:30:00Z,30.2791,-87.5561,68.17,1111122 
DISL,ioos:station:DISL:PPTA:1,2017-09-04T04:00:00Z,30.2791,-87.5561,67.79,1111122 
DISL,ioos:station:DISL:PPTA:1,2017-09-04T04:30:00Z,30.2791,-87.5561,75.05,1111122 
DISL,ioos:station:DISL:PPTA:1,2017-09-04T05:00:00Z,30.2791,-87.5561,76.87,1111122 
DISL,ioos:station:DISL:PPTA:1,2017-09-04T05:30:00Z,30.2791,-87.5561,76.57,1111122 
DISL,ioos:station:DISL:PPTA:1,2017-09-04T06:00:00Z,30.2791,-87.5561,73.27,1111122 
DISL,ioos:station:DISL:PPTA:1,2017-09-04T06:30:00Z,30.2791,-87.5561,71.94,1111122 
DISL,ioos:station:DISL:PPTA:1,2017-09-04T07:00:00Z,30.2791,-87.5561,79.99,1111122 
DISL,ioos:station:DISL:PPTA:1,2017-09-04T07:30:00Z,30.2791,-87.5561,80.3,1111122 
DISL,ioos:station:DISL:PPTA:1,2017-09-04T08:00:00Z,30.2791,-87.5561,84.8,1111122 
DISL,ioos:station:DISL:PPTA:1,2017-09-04T08:30:00Z,30.2791,-87.5561,85.9,1111122 
DISL,ioos:station:DISL:PPTA:1,2017-09-04T09:00:00Z,30.2791,-87.5561,84.4,1111122 
DISL,ioos:station:DISL:PPTA:1,2017-09-04T09:30:00Z,30.2791,-87.5561,83.6,1111122 
DISL,ioos:station:DISL:PPTA:1,2017-09-04T10:00:00Z,30.2791,-87.5561,83.0,1111122 
DISL,ioos:station:DISL:PPTA:1,2017-09-04T10:30:00Z,30.2791,-87.5561,84.2,1111122 
DISL,ioos:station:DISL:PPTA:1,2017-09-04T11:00:00Z,30.2791,-87.5561,84.9,1111122 
DISL,ioos:station:DISL:PPTA:1,2017-09-04T11:30:00Z,30.2791,-87.5561,85.2,1111122 
DISL,ioos:station:DISL:PPTA:1,2017-09-04T12:00:00Z,30.2791,-87.5561,83.8,1111122 
DISL,ioos:station:DISL:PPTA:1,2017-09-04T12:30:00Z,30.2791,-87.5561,81.5,1111122 
DISL,ioos:station:DISL:PPTA:1,2017-09-04T13:00:00Z,30.2791,-87.5561,77.87,1111122 
DISL,ioos:station:DISL:PPTA:1,2017-09-04T13:30:00Z,30.2791,-87.5561,76.87,1111122 
DISL,ioos:station:DISL:PPTA:1,2017-09-04T14:00:00Z,30.2791,-87.5561,75.15,1111122 
DISL,ioos:station:DISL:PPTA:1,2017-09-04T14:30:00Z,30.2791,-87.5561,72.64,1111122 
DISL,ioos:station:DISL:PPTA:1,2017-09-04T15:00:00Z,30.2791,-87.5561,72.97,1111122 
DISL,ioos:station:DISL:PPTA:1,2017-09-04T15:30:00Z,30.2791,-87.5561,68.6,1111122 
DISL,ioos:station:DISL:PPTA:1,2017-09-04T16:00:00Z,30.2791,-87.5561,66.14,1111122 
DISL,ioos:station:DISL:PPTA:1,2017-09-04T16:30:00Z,30.2791,-87.5561,63.07,1111122 
DISL,ioos:station:DISL:PPTA:1,2017-09-04T17:00:00Z,30.2791,-87.5561,63.26,1111122 
DISL,ioos:station:DISL:PPTA:1,2017-09-04T17:30:00Z,30.2791,-87.5561,60.46,1111122 
DISL,ioos:station:DISL:PPTA:1,2017-09-04T18:00:00Z,30.2791,-87.5561,64.0,1111122 
DISL,ioos:station:DISL:PPTA:1,2017-09-04T18:30:00Z,30.2791,-87.5561,61.82,1111122 
DISL,ioos:station:DISL:PPTA:1,2017-09-04T19:00:00Z,30.2791,-87.5561,63.12,1111122 
DISL,ioos:station:DISL:PPTA:1,2017-09-04T19:30:00Z,30.2791,-87.5561,61.01,1111122 
DISL,ioos:station:DISL:PPTA:1,2017-09-04T20:00:00Z,30.2791,-87.5561,59.45,1111122 
DISL,ioos:station:DISL:PPTA:1,2017-09-04T20:30:00Z,30.2791,-87.5561,54.77,1111122 
DISL,ioos:station:DISL:PPTA:1,2017-09-04T21:00:00Z,30.2791,-87.5561,56.85,1111122 
DISL,ioos:station:DISL:PPTA:1,2017-09-04T21:30:00Z,30.2791,-87.5561,58.07,1111122 
DISL,ioos:station:DISL:PPTA:1,2017-09-04T22:00:00Z,30.2791,-87.5561,58.38,1111122 
DISL,ioos:station:DISL:PPTA:1,2017-09-04T22:30:00Z,30.2791,-87.5561,59.79,1111122 
DISL,ioos:station:DISL:PPTA:1,2017-09-04T23:00:00Z,30.2791,-87.5561,57.65,1111122 
DISL,ioos:station:DISL:PPTA:1,2017-09-04T23:30:00Z,30.2791,-87.5561,62.35,1111122 
DISL,ioos:station:DISL:PPTA:1,2017-09-05T00:00:00Z,30.2791,-87.5561,63.88,1111122 
DISL,ioos:station:DISL:PPTA:1,2017-09-05T00:30:00Z,30.2791,-87.5561,67.63,1111122 
DISL,ioos:station:DISL:PPTA:1,2017-09-05T01:00:00Z,30.2791,-87.5561,67.28,1111122 
DISL,ioos:station:DISL:PPTA:1,2017-09-05T01:30:00Z,30.2791,-87.5561,67.76,1111122 
DISL,ioos:station:DISL:PPTA:1,2017-09-05T02:00:00Z,30.2791,-87.5561,67.21,1111122 
DISL,ioos:station:DISL:PPTA:1,2017-09-05T02:30:00Z,30.2791,-87.5561,68.2,1111122 
DISL,ioos:station:DISL:PPTA:1,2017-09-05T03:00:00Z,30.2791,-87.5561,69.7,1111122 
DISL,ioos:station:DISL:PPTA:1,2017-09-05T03:30:00Z,30.2791,-87.5561,68.45,1111122 
DISL,ioos:station:DISL:PPTA:1,2017-09-05T04:00:00Z,30.2791,-87.5561,67.98,1111122 
DISL,ioos:station:DISL:PPTA:1,2017-09-05T04:30:00Z,30.2791,-87.5561,66.93,1111122 
DISL,ioos:station:DISL:PPTA:1,2017-09-05T05:00:00Z,30.2791,-87.5561,67.92,1111122 
DISL,ioos:station:DISL:PPTA:1,2017-09-05T05:30:00Z,30.2791,-87.5561,74.02,1111122 
DISL,ioos:station:DISL:PPTA:1,2017-09-05T06:00:00Z,30.2791,-87.5561,77.29,1111122 
DISL,ioos:station:DISL:PPTA:1,2017-09-05T06:30:00Z,30.2791,-87.5561,79.68,1111122 
DISL,ioos:station:DISL:PPTA:1,2017-09-05T07:00:00Z,30.2791,-87.5561,80.9,1111122 
DISL,ioos:station:DISL:PPTA:1,2017-09-05T07:30:00Z,30.2791,-87.5561,80.6,1111122 
DISL,ioos:station:DISL:PPTA:1,2017-09-05T08:00:00Z,30.2791,-87.5561,81.3,1111122 
DISL,ioos:station:DISL:PPTA:1,2017-09-05T08:30:00Z,30.2791,-87.5561,80.6,1111122 
DISL,ioos:station:DISL:PPTA:1,2017-09-05T09:00:00Z,30.2791,-87.5561,85.1,1111122 
DISL,ioos:station:DISL:PPTA:1,2017-09-05T09:30:00Z,30.2791,-87.5561,86.4,1111122 
DISL,ioos:station:DISL:PPTA:1,2017-09-05T10:00:00Z,30.2791,-87.5561,85.0,1111122 
DISL,ioos:station:DISL:PPTA:1,2017-09-05T10:30:00Z,30.2791,-87.5561,85.8,1111122 
DISL,ioos:station:DISL:PPTA:1,2017-09-05T11:00:00Z,30.2791,-87.5561,85.5,1111122 
DISL,ioos:station:DISL:PPTA:1,2017-09-05T11:30:00Z,30.2791,-87.5561,85.9,1111122 
DISL,ioos:station:DISL:PPTA:1,2017-09-05T12:00:00Z,30.2791,-87.5561,86.1,1111122 
DISL,ioos:station:DISL:PPTA:1,2017-09-05T12:30:00Z,30.2791,-87.5561,83.4,1111122 
DISL,ioos:station:DISL:PPTA:1,2017-09-05T13:00:00Z,30.2791,-87.5561,80.5,1111122 
DISL,ioos:station:DISL:PPTA:1,2017-09-05T13:30:00Z,30.2791,-87.5561,80.3,1111122 
DISL,ioos:station:DISL:PPTA:1,2017-09-05T14:00:00Z,30.2791,-87.5561,78.38,1111122 
DISL,ioos:station:DISL:PPTA:1,2017-09-05T14:30:00Z,30.2791,-87.5561,77.57,1111122 
DISL,ioos:station:DISL:PPTA:1,2017-09-05T15:00:00Z,30.2791,-87.5561,74.19,1111122 
DISL,ioos:station:DISL:PPTA:1,2017-09-05T15:30:00Z,30.2791,-87.5561,74.78,1111122 
DISL,ioos:station:DISL:PPTA:1,2017-09-05T16:00:00Z,30.2791,-87.5561,67.18,1111122 
DISL,ioos:station:DISL:PPTA:1,2017-09-05T16:30:00Z,30.2791,-87.5561,60.38,1111122 
DISL,ioos:station:DISL:PPTA:1,2017-09-05T17:00:00Z,30.2791,-87.5561,54.54,1111122 
DISL,ioos:station:DISL:PPTA:1,2017-09-05T17:30:00Z,30.2791,-87.5561,57.49,1111122 
DISL,ioos:station:DISL:PPTA:1,2017-09-05T18:00:00Z,30.2791,-87.5561,51.36,1111122 
DISL,ioos:station:DISL:PPTA:1,2017-09-05T18:30:00Z,30.2791,-87.5561,49.22,1111122 
DISL,ioos:station:DISL:PPTA:1,2017-09-05T19:00:00Z,30.2791,-87.5561,52.83,1111122 
DISL,ioos:station:DISL:PPTA:1,2017-09-05T19:30:00Z,30.2791,-87.5561,52.14,1111122 
DISL,ioos:station:DISL:PPTA:1,2017-09-05T20:00:00Z,30.2791,-87.5561,49.63,1111122 
DISL,ioos:station:DISL:PPTA:1,2017-09-05T20:30:00Z,30.2791,-87.5561,50.14,1111122 
DISL,ioos:station:DISL:PPTA:1,2017-09-05T21:00:00Z,30.2791,-87.5561,53.88,1111122 
DISL,ioos:station:DISL:PPTA:1,2017-09-05T21:30:00Z,30.2791,-87.5561,53.37,1111122 
DISL,ioos:station:DISL:PPTA:1,2017-09-05T22:00:00Z,30.2791,-87.5561,54.68,1111122 
DISL,ioos:station:DISL:PPTA:1,2017-09-05T22:30:00Z,30.2791,-87.5561,56.9,1111122 
DISL,ioos:station:DISL:PPTA:1,2017-09-05T23:00:00Z,30.2791,-87.5561,61.47,1111122 
DISL,ioos:station:DISL:PPTA:1,2017-09-05T23:30:00Z,30.2791,-87.5561,62.32,1111122 
DISL,ioos:station:DISL:PPTA:1,2017-09-06T00:00:00Z,30.2791,-87.5561,63.24,1111122 
DISL,ioos:station:DISL:PPTA:1,2017-09-06T00:30:00Z,30.2791,-87.5561,64.79,1111122 
DISL,ioos:station:DISL:PPTA:1,2017-09-06T01:00:00Z,30.2791,-87.5561,63.39,1111122 
DISL,ioos:station:DISL:PPTA:1,2017-09-06T01:30:00Z,30.2791,-87.5561,64.96,1111122 
DISL,ioos:station:DISL:PPTA:1,2017-09-06T02:00:00Z,30.2791,-87.5561,65.06,1111122 
DISL,ioos:station:DISL:PPTA:1,2017-09-06T02:30:00Z,30.2791,-87.5561,68.75,1111122 
DISL,ioos:station:DISL:PPTA:1,2017-09-06T03:00:00Z,30.2791,-87.5561,70.42,1111122 
DISL,ioos:station:DISL:PPTA:1,2017-09-06T03:30:00Z,30.2791,-87.5561,71.62,1111122 
DISL,ioos:station:DISL:PPTA:1,2017-09-06T04:00:00Z,30.2791,-87.5561,69.51,1111122 
DISL,ioos:station:DISL:PPTA:1,2017-09-06T04:30:00Z,30.2791,-87.5561,71.73,1111122 
DISL,ioos:station:DISL:PPTA:1,2017-09-06T05:00:00Z,30.2791,-87.5561,74.39,1111122 
DISL,ioos:station:DISL:PPTA:1,2017-09-06T05:30:00Z,30.2791,-87.5561,75.79,1111122 
DISL,ioos:station:DISL:PPTA:1,2017-09-06T06:00:00Z,30.2791,-87.5561,76.43,1111122 
DISL,ioos:station:DISL:PPTA:1,2017-09-06T06:30:00Z,30.2791,-87.5561,77.66,1111122 
DISL,ioos:station:DISL:PPTA:1,2017-09-06T07:00:00Z,30.2791,-87.5561,77.49,1111122 
DISL,ioos:station:DISL:PPTA:1,2017-09-06T07:30:00Z,30.2791,-87.5561,83.4,1111122 
DISL,ioos:station:DISL:PPTA:1,2017-09-06T08:00:00Z,30.2791,-87.5561,85.4,1111122 
DISL,ioos:station:DISL:PPTA:1,2017-09-06T08:30:00Z,30.2791,-87.5561,84.8,1111122 
DISL,ioos:station:DISL:PPTA:1,2017-09-06T09:00:00Z,30.2791,-87.5561,82.1,1111122 
DISL,ioos:station:DISL:PPTA:1,2017-09-06T09:30:00Z,30.2791,-87.5561,82.4,1111122 
DISL,ioos:station:DISL:PPTA:1,2017-09-06T10:00:00Z,30.2791,-87.5561,88.3,1111122 
DISL,ioos:station:DISL:PPTA:1,2017-09-06T10:30:00Z,30.2791,-87.5561,88.6,1111122 
DISL,ioos:station:DISL:PPTA:1,2017-09-06T11:00:00Z,30.2791,-87.5561,89.0,1111122 
DISL,ioos:station:DISL:PPTA:1,2017-09-06T11:30:00Z,30.2791,-87.5561,87.2,1111122 
DISL,ioos:station:DISL:PPTA:1,2017-09-06T12:00:00Z,30.2791,-87.5561,87.8,1111122 
DISL,ioos:station:DISL:PPTA:1,2017-09-06T12:30:00Z,30.2791,-87.5561,88.7,1111122 
DISL,ioos:station:DISL:PPTA:1,2017-09-06T13:00:00Z,30.2791,-87.5561,88.3,1111122 
DISL,ioos:station:DISL:PPTA:1,2017-09-06T13:30:00Z,30.2791,-87.5561,87.2,1111122 
DISL,ioos:station:DISL:PPTA:1,2017-09-06T14:00:00Z,30.2791,-87.5561,86.7,1111122 
DISL,ioos:station:DISL:PPTA:1,2017-09-06T14:30:00Z,30.2791,-87.5561,84.6,1111122 
DISL,ioos:station:DISL:PPTA:1,2017-09-06T15:00:00Z,30.2791,-87.5561,83.0,1111122 
DISL,ioos:station:DISL:PPTA:1,2017-09-06T15:30:00Z,30.2791,-87.5561,82.7,1111122 
DISL,ioos:station:DISL:PPTA:1,2017-09-06T16:00:00Z,30.2791,-87.5561,76.42,1111122 
DISL,ioos:station:DISL:PPTA:1,2017-09-06T16:30:00Z,30.2791,-87.5561,72.83,1111122 
DISL,ioos:station:DISL:PPTA:1,2017-09-06T17:00:00Z,30.2791,-87.5561,69.43,1111122 
DISL,ioos:station:DISL:PPTA:1,2017-09-06T17:30:00Z,30.2791,-87.5561,69.8,1111122 
DISL,ioos:station:DISL:PPTA:1,2017-09-06T18:00:00Z,30.2791,-87.5561,73.62,1111122 
DISL,ioos:station:DISL:PPTA:1,2017-09-06T18:30:00Z,30.2791,-87.5561,69.94,1111122 
DISL,ioos:station:DISL:PPTA:1,2017-09-06T19:00:00Z,30.2791,-87.5561,69.39,1111122 
DISL,ioos:station:DISL:PPTA:1,2017-09-06T19:30:00Z,30.2791,-87.5561,63.6,1111122 
DISL,ioos:station:DISL:PPTA:1,2017-09-06T20:00:00Z,30.2791,-87.5561,61.52,1111122 
DISL,ioos:station:DISL:PPTA:1,2017-09-06T20:30:00Z,30.2791,-87.5561,59.03,1111122 
DISL,ioos:station:DISL:PPTA:1,2017-09-06T21:00:00Z,30.2791,-87.5561,60.09,1111122 
DISL,ioos:station:DISL:PPTA:1,2017-09-06T21:30:00Z,30.2791,-87.5561,61.18,1111122 
DISL,ioos:station:DISL:PPTA:1,2017-09-06T22:00:00Z,30.2791,-87.5561,61.83,1111122 
DISL,ioos:station:DISL:PPTA:1,2017-09-06T22:30:00Z,30.2791,-87.5561,58.54,1111122 
DISL,ioos:station:DISL:PPTA:1,2017-09-06T23:00:00Z,30.2791,-87.5561,61.4,1111122 
DISL,ioos:station:DISL:PPTA:1,2017-09-06T23:30:00Z,30.2791,-87.5561,64.44,1111122 
DISL,ioos:station:DISL:PPTA:1,2017-09-07T00:00:00Z,30.2791,-87.5561,63.02,1111122 